When you browse on this site, cookies collect data to enhance your experience and personalize the content and advertising you see.
Visit our Privacy Policy to learn more. By continuing to use the site, you agree to this use of cookies and data.

Stündliche Wetter Bolshie Lipki

Heute, 27 September, Sonntag

Zeit Temperatur Niederschläge Wind Luftdruck Luftfeuchtigkeit
00:00 +14°C° 0 mm 3 m/S 754 mmHg 81%
01:00 +13°C° 0 mm 3 m/S 755 mmHg 83%
02:00 +13°C° 0 mm 3 m/S 755 mmHg 85%
03:00 +12°C° 0 mm 3 m/S 755 mmHg 85%
04:00 +12°C° 0 mm 3 m/S 755 mmHg 86%
05:00 +12°C° 0 mm 3 m/S 755 mmHg 87%
06:00 +12°C° 0 mm 3 m/S 755 mmHg 82%
07:00 +13°C° 0 mm 3 m/S 755 mmHg 78%
08:00 +14°C° 0 mm 3 m/S 756 mmHg 74%
09:00 +16°C° 0 mm 3 m/S 756 mmHg 69%
10:00 +18°C° 0 mm 4 m/S 756 mmHg 63%
11:00 +19°C° 0 mm 4 m/S 756 mmHg 57%
12:00 +20°C° 0 mm 4 m/S 756 mmHg 55%
13:00 +21°C° 0 mm 4 m/S 755 mmHg 53%
14:00 +22°C° 0 mm 4 m/S 755 mmHg 50%
15:00 +21°C° 0 mm 4 m/S 755 mmHg 54%
16:00 +20°C° 0 mm 4 m/S 755 mmHg 57%
17:00 +19°C° 0 mm 3 m/S 755 mmHg 61%
18:00 +18°C° 0 mm 3 m/S 755 mmHg 62%
19:00 +17°C° 0 mm 4 m/S 756 mmHg 64%
20:00 +14°C° 0 mm 4 m/S 756 mmHg 65%
21:00 +14°C° 0 mm 3 m/S 756 mmHg 68%
22:00 +13°C° 0 mm 3 m/S 756 mmHg 70%
23:00 +12°C° 0 mm 3 m/S 756 mmHg 73%

Morgen, 28 September, Montag

Zeit Temperatur Niederschläge Wind Luftdruck Luftfeuchtigkeit
00:00 +12°C° 0 mm 3 m/S 756 mmHg 74%
01:00 +11°C° 0 mm 3 m/S 756 mmHg 74%
02:00 +11°C° 0 mm 3 m/S 756 mmHg 75%
03:00 +11°C° 0.2 mm 3 m/S 756 mmHg 79%
04:00 +11°C° 0.2 mm 3 m/S 756 mmHg 82%
05:00 +11°C° 0.2 mm 4 m/S 755 mmHg 86%
06:00 +11°C° 0.5 mm 4 m/S 755 mmHg 88%
07:00 +11°C° 0.5 mm 4 m/S 755 mmHg 90%
08:00 +11°C° 0.5 mm 4 m/S 755 mmHg 92%
09:00 +11°C° 0.1 mm 4 m/S 755 mmHg 92%
10:00 +11°C° 0.1 mm 4 m/S 755 mmHg 92%
11:00 +12°C° 0.1 mm 3 m/S 755 mmHg 91%
12:00 +12°C° 0.1 mm 3 m/S 755 mmHg 91%
13:00 +13°C° 0.1 mm 3 m/S 755 mmHg 91%
14:00 +14°C° 0.1 mm 3 m/S 755 mmHg 91%
15:00 +13°C° 0.3 mm 3 m/S 756 mmHg 91%
16:00 +13°C° 0.3 mm 4 m/S 756 mmHg 91%
17:00 +13°C° 0.3 mm 4 m/S 756 mmHg 91%
18:00 +12°C° 0.5 mm 4 m/S 756 mmHg 92%
19:00 +11°C° 0.5 mm 4 m/S 757 mmHg 92%
20:00 +11°C° 0.5 mm 4 m/S 757 mmHg 92%
21:00 +11°C° 0.2 mm 3 m/S 757 mmHg 92%
22:00 +11°C° 0.2 mm 3 m/S 758 mmHg 92%
23:00 +11°C° 0.2 mm 3 m/S 758 mmHg 92%

übermorgen, 29 September, Dienstag

Zeit Temperatur Niederschläge Wind Luftdruck Luftfeuchtigkeit
00:00 +11°C° 0.1 mm 3 m/S 758 mmHg 92%
01:00 +10°C° 0.1 mm 2 m/S 758 mmHg 92%
02:00 +10°C° 0.1 mm 2 m/S 758 mmHg 92%
03:00 +10°C° 0 mm 2 m/S 758 mmHg 93%
04:00 +9°C° 0 mm 2 m/S 758 mmHg 94%
05:00 +9°C° 0 mm 2 m/S 758 mmHg 95%
06:00 +9°C° 0 mm 2 m/S 758 mmHg 93%
07:00 +10°C° 0 mm 2 m/S 759 mmHg 91%
08:00 +12°C° 0 mm 2 m/S 759 mmHg 89%
09:00 +13°C° 0 mm 2 m/S 759 mmHg 84%
10:00 +14°C° 0 mm 2 m/S 759 mmHg 79%
11:00 +16°C° 0 mm 2 m/S 759 mmHg 74%
12:00 +16°C° 0 mm 2 m/S 759 mmHg 70%
13:00 +17°C° 0 mm 2 m/S 758 mmHg 67%
14:00 +18°C° 0 mm 2 m/S 758 mmHg 63%
15:00 +18°C° 0 mm 1 m/S 758 mmHg 68%
16:00 +16°C° 0 mm 1 m/S 758 mmHg 73%
17:00 +15°C° 0 mm 1 m/S 758 mmHg 79%
18:00 +14°C° 0 mm 1 m/S 758 mmHg 82%
19:00 +13°C° 0 mm 1 m/S 758 mmHg 85%
20:00 +11°C° 0 mm 1 m/S 758 mmHg 89%
21:00 +11°C° 0 mm 1 m/S 758 mmHg 90%
22:00 +11°C° 0 mm 1 m/S 758 mmHg 91%
23:00 +11°C° 0 mm 1 m/S 758 mmHg 92%

30 September, Mittwoch

Zeit Temperatur Niederschläge Wind Luftdruck Luftfeuchtigkeit
00:00 +10°C° 0 mm 1 m/S 758 mmHg 93%
01:00 +10°C° 0 mm 1 m/S 757 mmHg 95%
02:00 +10°C° 0 mm 1 m/S 757 mmHg 96%
03:00 +10°C° 0 mm 1 m/S 757 mmHg 96%
04:00 +10°C° 0 mm 1 m/S 757 mmHg 96%
05:00 +10°C° 0 mm 1 m/S 757 mmHg 96%
06:00 +9°C° 0 mm 2 m/S 757 mmHg 91%
07:00 +10°C° 0 mm 2 m/S 757 mmHg 87%
08:00 +10°C° 0 mm 2 m/S 757 mmHg 82%
09:00 +13°C° 0 mm 2 m/S 757 mmHg 75%
10:00 +14°C° 0 mm 2 m/S 757 mmHg 68%
11:00 +16°C° 0 mm 2 m/S 757 mmHg 61%
12:00 +16°C° 0 mm 2 m/S 756 mmHg 60%
13:00 +17°C° 0 mm 3 m/S 756 mmHg 58%
14:00 +17°C° 0 mm 3 m/S 756 mmHg 57%
15:00 +16°C° 0 mm 2 m/S 756 mmHg 61%
16:00 +15°C° 0 mm 2 m/S 756 mmHg 66%
17:00 +14°C° 0 mm 2 m/S 756 mmHg 71%
18:00 +13°C° 0 mm 2 m/S 756 mmHg 73%
19:00 +12°C° 0 mm 2 m/S 756 mmHg 76%
20:00 +10°C° 0 mm 2 m/S 757 mmHg 78%
21:00 +10°C° 0 mm 2 m/S 757 mmHg 80%
22:00 +10°C° 0 mm 2 m/S 757 mmHg 81%
23:00 +9°C° 0 mm 2 m/S 757 mmHg 82%

1 Oktober, Donnerstag

Zeit Temperatur Niederschläge Wind Luftdruck Luftfeuchtigkeit
00:00 +9°C° 0 mm 2 m/S 757 mmHg 83%
01:00 +8°C° 0 mm 2 m/S 756 mmHg 83%
02:00 +8°C° 0 mm 2 m/S 756 mmHg 84%
03:00 +8°C° 0 mm 2 m/S 756 mmHg 83%
04:00 +7°C° 0 mm 2 m/S 756 mmHg 83%
05:00 +7°C° 0 mm 2 m/S 756 mmHg 82%
06:00 +8°C° 0 mm 2 m/S 756 mmHg 79%
07:00 +9°C° 0 mm 3 m/S 756 mmHg 75%
08:00 +9°C° 0 mm 3 m/S 756 mmHg 71%
09:00 +11°C° 0 mm 3 m/S 756 mmHg 67%
10:00 +12°C° 0 mm 3 m/S 756 mmHg 63%
11:00 +14°C° 0 mm 3 m/S 756 mmHg 59%
12:00 +16°C° 0 mm 3 m/S 756 mmHg 58%
13:00 +17°C° 0 mm 4 m/S 756 mmHg 56%
14:00 +18°C° 0 mm 4 m/S 756 mmHg 54%
15:00 +17°C° 0 mm 4 m/S 756 mmHg 58%
16:00 +16°C° 0 mm 3 m/S 756 mmHg 63%
17:00 +14°C° 0 mm 3 m/S 756 mmHg 67%
18:00 +13°C° 0 mm 3 m/S 756 mmHg 68%
19:00 +12°C° 0 mm 3 m/S 757 mmHg 70%
20:00 +11°C° 0 mm 3 m/S 757 mmHg 72%
21:00 +11°C° 0 mm 3 m/S 757 mmHg 74%
22:00 +11°C° 0 mm 3 m/S 757 mmHg 75%
23:00 +10°C° 0 mm 3 m/S 757 mmHg 77%

2 Oktober, Freitag

Zeit Temperatur Niederschläge Wind Luftdruck Luftfeuchtigkeit
00:00 +10°C° 0 mm 3 m/S 757 mmHg 77%
01:00 +10°C° 0 mm 3 m/S 757 mmHg 77%
02:00 +10°C° 0 mm 3 m/S 758 mmHg 77%
03:00 +10°C° 0 mm 3 m/S 758 mmHg 76%
04:00 +10°C° 0 mm 3 m/S 758 mmHg 75%
05:00 +10°C° 0 mm 3 m/S 758 mmHg 74%
06:00 +10°C° 0 mm 3 m/S 758 mmHg 73%
07:00 +10°C° 0 mm 3 m/S 758 mmHg 72%
08:00 +10°C° 0 mm 4 m/S 758 mmHg 71%
09:00 +12°C° 0 mm 4 m/S 758 mmHg 66%
10:00 +13°C° 0 mm 4 m/S 758 mmHg 62%
11:00 +15°C° 0 mm 4 m/S 758 mmHg 57%
12:00 +17°C° 0 mm 4 m/S 758 mmHg 55%
13:00 +17°C° 0 mm 4 m/S 758 mmHg 52%
14:00 +18°C° 0 mm 4 m/S 758 mmHg 50%
15:00 +17°C° 0 mm 4 m/S 758 mmHg 55%
16:00 +16°C° 0 mm 3 m/S 758 mmHg 59%
17:00 +14°C° 0 mm 3 m/S 759 mmHg 64%
18:00 +13°C° 0 mm 3 m/S 759 mmHg 66%
19:00 +13°C° 0 mm 3 m/S 759 mmHg 69%
20:00 +12°C° 0 mm 4 m/S 759 mmHg 71%
21:00 +12°C° 0 mm 3 m/S 760 mmHg 74%
22:00 +12°C° 0 mm 3 m/S 760 mmHg 77%
23:00 +11°C° 0 mm 3 m/S 760 mmHg 80%
Mehr zeigen